This demonstration page uses our WeatherBlox Daily Observations layout. Learn more.

Left ArrowRight Arrow

38.20091, -84.87328

Hourly Observations for June 20, 2021

Temp ( °F °C ) Dew Point ( °F °C ) Humidity (%) Winds ( mph kmh ) Pressure ( in mb ) Visibility ( mi km ) Precip ( " mm )
12:53 am 00:53 Cloudy 76 24.4 69 20.6 79 79 SSW 8 13 29.84 1011 10 16 0.00 0.00
1:53 am 01:53 Clear 73 22.8 68 20 84 84 SSW 6 9 29.84 1010 10 16 0.00 0.00
2:53 am 02:53 Clear 72 22.2 68 20 87 87 SW 7 11 29.81 1009 10 16 0.00 0.00
3:53 am 03:53 Clear 71 21.7 68 20 90 90 SSW 9 15 29.80 1009 10 16 0.00 0.00
4:53 am 04:53 Clear 72 22.2 67 19.4 84 84 SW 9 15 29.81 1010 10 16 0.00 0.00
5:53 am 05:53 Clear 69 20.6 66 18.9 90 90 SSW 7 11 29.83 1010 10 16 0.00 0.00
6:53 am 06:53 Sunny 69 20.6 66 18.9 90 90 SSW 5 7 29.84 1011 10 16 0.00 0.00
7:53 am 07:53 Sunny 72 22.2 67 19.4 84 84 SSW 7 11 29.83 1010 10 16 0.00 0.00
8:53 am 08:53 Sunny 76 24.4 68 20 77 77 SW 10 17 29.83 1010 10 16 0.00 0.00
9:53 am 09:53 Mostly Sunny 79 26.1 69 20.6 72 72 SW 10 17 29.85 1011 10 16 0.00 0.00
10:53 am 10:53 Sunny 82 27.8 68 20 63 63 SW 9 15 29.83 1010 10 16 0.00 0.00
11:53 am 11:53 Sunny 84 28.9 69 20.6 61 61 SSW 10 17 29.81 1010 10 16 0.00 0.00
12:53 pm 12:53 Sunny 86 30 71 21.7 61 61 SSW 10 17 29.80 1009 10 16 0.00 0.00
1:53 pm 13:53 Sunny 86 30 70 21.1 59 59 SSW 6 9 29.78 1008 10 16 0.00 0.00
2:53 pm 14:53 Mostly Cloudy 87 30.6 69 20.6 55 55 SW 9 15 29.76 1008 10 16 0.00 0.00
3:53 pm 15:53 Mostly Sunny 87 30.6 69 20.6 55 55 SSW 9 15 29.75 1008 10 16 0.00 0.00
4:53 pm 16:53 Mostly Sunny 89 31.7 68 20 50 50 SW 13 20 29.74 1007 10 16 0.00 0.00
5:53 pm 17:53 Mostly Sunny 89 31.7 69 20.6 52 52 SW 7 11 29.75 1007 10 16 0.00 0.00
6:53 pm 18:53 Sunny 87 30.6 70 21.1 57 57 SW 10 17 29.74 1007 10 16 0.00 0.00
7:53 pm 19:53 Sunny 85 29.4 69 20.6 59 59 SW 8 13 29.74 1007 10 16 0.00 0.00
8:53 pm 20:53 Sunny 82 27.8 70 21.1 67 67 SSW 6 9 29.73 1007 10 16 0.00 0.00
9:53 pm 21:53 Clear 81 27.2 69 20.6 67 67 SSW 7 11 29.72 1007 10 16 0.00 0.00
10:53 pm 22:53 Clear 80 26.7 69 20.6 69 69 S 8 13 29.73 1007 10 16 0.00 0.00
11:53 pm 23:53 Clear 78 25.6 69 20.6 74 74 SSW 7 11 29.74 1007 10 16 0.00 0.00

Powered by AerisWeather